Weather History for Marianna, FL

Change the Weather History Date:

Tuesday, January 29, 2013

  Actual Average Record
Temperature  
Mean Temperature 70 °F 52 °F  
Max Temperature 82 °F 63 °F 82 °F (2013)
Min Temperature 58 °F 40 °F 24 °F (2014)
Degree Days  
Heating Degree Days 0    
Month to date heating degree days 218  
Since 1 July heating degree days 709  
Cooling Degree Days 5    
Month to date cooling degree days 53  
Year to date cooling degree days 53  
Growing Degree Days 21 (Base 50)    
Moisture  
Dew Point 61 °F    
Average Humidity 71    
Maximum Humidity 93    
Minimum Humidity 48    
Precipitation  
Precipitation 0.00 in 0.19 in 0.50 in (2005)
Month to date precipitation 0.51 4.65  
Year to date precipitation 0.51 4.65  
Sea Level Pressure  
Sea Level Pressure 30.09 in    
Wind  
Wind Speed 8 mph (SSE)    
Max Wind Speed 20 mph    
Max Gust Speed 24 mph    
Visibility 10 miles    
Events      
T = Trace of Precipitation, MM = Missing Value Source: NWS Daily Summary

Daily Weather History Graph

Daily Weather History Graph

Search for Another Location

Airport:

Trip Planner

Search our weather history database for the weather conditions in past years. The results will help you decide how hot, cold, wet, or windy it might be!

Date:

Astronomy

Jan. 29, 2013 Rise Set
Actual Time 6:33 AM CST 5:14 PM CST
Civil Twilight 6:08 AM CST 5:39 PM CST
Nautical Twilight 5:39 AM CST 6:08 PM CST
Astronomical Twilight 5:10 AM CST 6:37 PM CST
Moon 7:53 PM CST (1/29) 7:44 AM CST (1/29)
Length of Visible Light 11h 31m
Length of Day
10h 40m
Waning Gibbous, 93% of the Moon is Illuminated
Jan 29
Waning Gibbous
Feb 3
Last Quarter
Feb 10
New
Feb 17
First Quarter
Feb 25
Full

Hourly Weather History & Observations

Time (CST) Temp. Heat Index Dew Point Humidity Pressure Visibility Wind Dir Wind Speed Gust Speed Precip Events Conditions
12:53 AM 63.0 °F - 60.1 °F 90% 30.19 in 10.0 mi East 3.5 mph - N/A   Overcast
1:53 AM 64.0 °F - 59.0 °F 84% 30.18 in 10.0 mi SSE 4.6 mph - N/A   Overcast
2:53 AM 64.0 °F - 59.0 °F 84% 30.18 in 10.0 mi SE 3.5 mph - N/A   Overcast
3:53 AM 64.9 °F - 57.9 °F 78% 30.17 in 10.0 mi SE 4.6 mph - N/A   Overcast
4:53 AM 63.0 °F - 57.9 °F 84% 30.17 in 10.0 mi Calm Calm - N/A   Mostly Cloudy
5:53 AM 61.0 °F - 57.0 °F 87% 30.17 in 10.0 mi Calm Calm - N/A   Mostly Cloudy
6:53 AM 61.0 °F - 57.9 °F 90% 30.18 in 10.0 mi SE 3.5 mph - N/A   Mostly Cloudy
7:53 AM 63.0 °F - 59.0 °F 87% 30.17 in 10.0 mi SE 4.6 mph - N/A   Partly Cloudy
8:53 AM 69.1 °F - 62.1 °F 78% 30.17 in 10.0 mi South 5.8 mph - N/A   Partly Cloudy
9:53 AM 73.9 °F - 62.1 °F 66% 30.17 in 10.0 mi South 10.4 mph - N/A   Partly Cloudy
10:53 AM 75.9 °F - 62.1 °F 62% 30.14 in 10.0 mi South 15.0 mph 23.0 mph N/A   Clear
11:53 AM 78.1 °F - 62.1 °F 58% 30.11 in 10.0 mi South 12.7 mph 23.0 mph N/A   Overcast
12:53 PM 81.0 °F 81.9 °F 62.1 °F 52% 30.08 in 10.0 mi SSE 12.7 mph - N/A   Mostly Cloudy
1:53 PM 80.1 °F 81.1 °F 61.0 °F 52% 30.05 in 10.0 mi South 10.4 mph - N/A   Mostly Cloudy
2:53 PM 79.0 °F - 59.0 °F 50% 30.02 in 10.0 mi South 10.4 mph - N/A   Partly Cloudy
3:53 PM 79.0 °F - 57.9 °F 48% 30.01 in 10.0 mi SSE 9.2 mph 21.9 mph N/A   Clear
4:53 PM 75.0 °F - 61.0 °F 62% 30.02 in 10.0 mi SSE 10.4 mph 23.0 mph N/A   Clear
5:53 PM 73.0 °F - 63.0 °F 71% 30.04 in 10.0 mi South 10.4 mph - N/A   Overcast
6:23 PM 71.6 °F - 64.4 °F 78% 30.03 in 10.0 mi SSE 8.1 mph - N/A   Overcast
6:35 PM 71.6 °F - 64.4 °F 78% 30.03 in 10.0 mi SSE 9.2 mph - N/A   Overcast
6:53 PM 72.0 °F - 64.0 °F 76% 30.04 in 10.0 mi SSE 5.8 mph - N/A   Overcast
7:05 PM 71.6 °F - 64.4 °F 78% 30.04 in 10.0 mi SSE 6.9 mph - N/A   Overcast
7:53 PM 70.0 °F - 64.0 °F 81% 30.04 in 10.0 mi SSE 8.1 mph - N/A   Overcast
8:53 PM 69.1 °F - 64.0 °F 84% 30.02 in 10.0 mi SSE 6.9 mph - N/A   Overcast
9:53 PM 69.1 °F - 64.9 °F 87% 30.02 in 10.0 mi SSE 5.8 mph - N/A   Overcast
10:53 PM 69.1 °F - 64.9 °F 87% 30.00 in 10.0 mi South 10.4 mph - N/A   Overcast
11:53 PM 69.1 °F - 64.9 °F 87% 29.98 in 10.0 mi South 9.2 mph - N/A   Overcast